Location: Brno
(49.2000°N, 16.6330°E)
Time: 07:55:17
(UTC+02:00)

Cosmos 332 Rocket - Visible Passes

Search period start: 02 May 2016 00:00
Search period end: 12 May 2016 00:00
Orbit: 683 x 705 km, 74.0° (Epoch: 01 May)

Date Brightness Start Highest point End Pass type
(mag) Time Alt. Az. Time Alt. Az. Time Alt. Az.
02 May 7.3 04:54:16 10° NNE 04:55:35 11° NE 04:56:53 10° NE visible
02 May 4.0 20:59:54 10° S 21:04:38 52° ESE 21:09:23 10° NNE visible
02 May 6.0 22:41:18 10° WSW 22:45:24 26° NW 22:49:29 10° N visible
03 May 4.5 21:41:01 10° SW 21:45:51 58° WNW 21:50:42 10° NNE visible
03 May 7.0 23:25:33 10° WNW 23:27:26 12° NW 23:29:19 10° NNW visible
04 May 7.3 04:35:57 10° NNE 04:37:43 12° NE 04:39:28 10° ENE visible
04 May 6.3 22:23:31 10° WSW 22:27:29 24° NW 22:31:26 10° N visible
05 May 4.8 21:23:07 10° SW 21:27:55 53° WNW 21:32:41 10° NNE visible
05 May 7.2 23:08:07 10° WNW 23:09:34 11° NW 23:11:00 10° NNW visible
06 May 7.3 04:17:43 10° NNE 04:19:50 13° NE 04:21:56 10° ENE visible
06 May 6.5 22:05:45 10° WSW 22:09:34 22° NW 22:13:23 10° N visible
07 May 5.0 21:05:14 10° SW 21:09:58 48° WNW 21:14:42 10° NNE visible
07 May 7.5 22:50:56 10° NW 22:51:41 10° NW 22:52:27 10° NNW visible
08 May 7.3 03:59:32 10° NNE 04:01:57 14° NE 04:04:21 10° ENE visible
08 May 6.7 21:48:01 10° W 21:51:40 21° NW 21:55:20 10° N visible
09 May 6.2 04:39:39 10° N 04:43:54 30° NE 04:48:07 10° ESE visible
10 May 7.2 03:41:24 10° N 03:44:04 15° NE 03:46:44 10° ENE visible
10 May 7.0 21:30:17 10° W 21:33:46 19° NW 21:37:15 10° N visible
11 May 5.9 04:21:38 10° N 04:25:59 32° NE 04:30:17 10° ESE visible
